Mountain Home, ID

12:14 AM MDT on September 26, 2017 (GMT -0600)
Mountain Home Air Force Base

Weather History for KMUO - October, 2012

Change the Weather History Date:

Wednesday, October 31, 2012

  Actual Average Record
Temperature  
Mean Temperature 59 °F 45 °F  
Max Temperature 73 °F 58 °F 74 °F (2008)
Min Temperature 45 °F 32 °F 9 °F (2002)
Degree Days  
Heating Degree Days 6 19  
Month to date heating degree days 439 418  
Cooling Degree Days 0 0  
Month to date cooling degree days 0 2  
Growing Degree Days 8 (Base 50)    
Moisture  
Dew Point 33 °F    
Average Humidity 44    
Maximum Humidity 62    
Minimum Humidity 21    
Precipitation  
Precipitation 0.00 in 0.04 in 0.66 in (1983)
Month to date precipitation 0.33  
Sea Level Pressure  
Sea Level Pressure 29.90 in    
Wind  
Wind Speed 14 mph (ESE)    
Max Wind Speed 22 mph    
Max Gust Speed 25 mph    
Visibility 10 miles    
Events      
T = Trace of Precipitation, MM = Missing Value Source: NWS Daily Summary

Daily Weather History Graph

Daily Weather History Graph

Search for Another Location

Airport or City:

Trip Planner

Search our weather history database for the weather conditions in past years. The results will help you decide how hot, cold, wet, or windy it might be!

Date:

Astronomy

Oct. 31, 2012 Rise Set
Actual Time 8:17 AM MDT 6:35 PM MDT
Civil Twilight 7:47 AM MDT 7:05 PM MDT
Nautical Twilight 7:14 AM MDT 7:38 PM MDT
Astronomical Twilight 6:41 AM MDT 8:11 PM MDT
Moon 7:47 PM MDT (10/31) 10:05 AM MDT (10/31)
Length of Visible Light 11h 17m
Length of Day
10h 18m
Full, 97% of the Moon is Illuminated
Oct 31
Full
Nov 6
Last Quarter
Nov 13
New
Nov 20
First Quarter
Nov 28
Full

Hourly Weather History & Observations

Time (MDT) Temp. Windchill Dew Point Humidity Pressure Visibility Wind Dir Wind Speed Gust Speed Precip Events Conditions
12:55 AM 51.3 °F - 33.1 °F 50% 29.99 in 10.0 mi East 12.7 mph - N/A   Clear
1:55 AM 49.5 °F - 32.7 °F 53% 29.98 in 10.0 mi ESE 10.4 mph - N/A   Partly Cloudy
2:55 AM 50.0 °F - 32.5 °F 51% 29.97 in 10.0 mi ESE 10.4 mph - N/A   Clear
3:55 AM 47.7 °F - 32.7 °F 56% 29.97 in 10.0 mi ESE 11.5 mph - N/A   Clear
4:55 AM 46.9 °F - 33.1 °F 59% 29.95 in 10.0 mi East 15.0 mph - N/A   Clear
5:55 AM 46.4 °F 41.1 °F 32.9 °F 59% 29.95 in 10.0 mi ESE 11.5 mph - 0.00 in   Clear
6:55 AM 46.6 °F - 33.4 °F 60% 29.96 in 10.0 mi ESE 17.3 mph - N/A   Clear
7:55 AM 45.9 °F 38.8 °F 33.6 °F 62% 29.97 in 10.0 mi ESE 17.3 mph - N/A   Scattered Clouds
8:55 AM 47.1 °F - 34.3 °F 61% 29.98 in 10.0 mi ESE 21.9 mph - N/A   Mostly Cloudy
9:55 AM 49.5 °F - 34.2 °F 56% 29.97 in 10.0 mi ESE 21.9 mph - N/A   Mostly Cloudy
10:55 AM 53.8 °F - 33.4 °F 46% 29.98 in 10.0 mi ESE 19.6 mph - N/A   Mostly Cloudy
11:55 AM 60.6 °F - 33.6 °F 36% 29.96 in 10.0 mi ESE 20.7 mph - N/A   Mostly Cloudy
12:55 PM 66.7 °F - 32.2 °F 28% 29.92 in 10.0 mi ESE 18.4 mph 25.3 mph N/A   Mostly Cloudy
1:55 PM 71.1 °F - 30.2 °F 22% 29.88 in 10.0 mi ESE 17.3 mph 24.2 mph N/A   Mostly Cloudy
2:55 PM 72.5 °F - 30.7 °F 21% 29.85 in 10.0 mi ESE 18.4 mph - N/A   Mostly Cloudy
3:55 PM 71.4 °F - 31.1 °F 23% 29.82 in 10.0 mi ESE 17.3 mph - N/A   Mostly Cloudy
4:55 PM 71.6 °F - 32.4 °F 24% 29.83 in 10.0 mi ESE 13.8 mph - N/A   Overcast
5:55 PM 67.6 °F - 34.0 °F 29% 29.81 in 10.0 mi ESE 10.4 mph - N/A   Mostly Cloudy
6:55 PM 60.1 °F - 33.6 °F 37% 29.81 in 10.0 mi East 11.5 mph - N/A   Overcast
7:55 PM 59.0 °F - 33.4 °F 38% 29.82 in 10.0 mi ESE 6.9 mph - N/A   Mostly Cloudy
8:55 PM 60.1 °F - 33.4 °F 37% 29.82 in 10.0 mi South 8.1 mph - N/A   Mostly Cloudy
9:55 PM 59.9 °F - 34.0 °F 38% 29.81 in 10.0 mi East 3.5 mph - N/A   Overcast
10:55 PM 56.1 °F - 35.1 °F 45% 29.83 in 10.0 mi ESE 6.9 mph - N/A   Overcast
11:55 PM 52.7 °F - 36.9 °F 55% 29.82 in 10.0 mi ENE 6.9 mph - N/A   Overcast